Weather History for Penn Yan, NY

Change the Weather History Date:

Thursday, August 28, 2014

  Actual Average (KITH) Record (KITH)
Temperature  
Mean Temperature 62 °F -  
Max Temperature 69 °F 78 °F 95 °F (1948)
Min Temperature 55 °F 56 °F 39 °F (1957)
Degree Days  
Heating Degree Days 4    
Growing Degree Days 12 (Base 50)    
Moisture  
Dew Point 52 °F    
Average Humidity 73    
Maximum Humidity 87    
Minimum Humidity 47    
Precipitation  
Precipitation 0.00 in - - ()
Sea Level Pressure  
Sea Level Pressure 30.05 in    
Wind  
Wind Speed 5 mph (WNW)    
Max Wind Speed 13 mph    
Max Gust Speed 21 mph    
Visibility 10 miles    
Events      
Averages and records for this station are not official NWS values.
T = Trace of Precipitation, MM = Missing Value Source: NWS Daily Summary

Daily Weather History Graph

Daily Weather History Graph

Search for Another Location

Airport:

Trip Planner

Search our weather history database for the weather conditions in past years. The results will help you decide how hot, cold, wet, or windy it might be!

Date:

Astronomy

Aug. 28, 2014 Rise Set
Actual Time 6:28 AM EDT 7:49 PM EDT
Civil Twilight 5:59 AM EDT 8:18 PM EDT
Nautical Twilight 5:24 AM EDT 8:53 PM EDT
Astronomical Twilight 4:46 AM EDT 9:30 PM EDT
Moon 9:23 AM EDT (8/28) 9:06 PM EDT (8/28)
Length of Visible Light 14h 19m
Length of Day
13h 20m
Waxing Crescent, 8% of the Moon is Illuminated
Aug 28
Waxing Crescent
Sep 2
First Quarter
Sep 8
Full
Sep 15
Last Quarter
Sep 24
New

Hourly Weather History & Observations

Time (EDT) Temp. Dew Point Humidity Pressure Visibility Wind Dir Wind Speed Gust Speed Precip Events Conditions
12:08 AM 62.1 °F 55.9 °F 80% 30.05 in 10.0 mi West 4.6 mph - N/A   Overcast
12:53 AM 61.0 °F 55.0 °F 81% 30.03 in 10.0 mi West 3.5 mph - N/A   Mostly Cloudy
1:53 AM 61.0 °F 55.0 °F 81% 30.02 in 10.0 mi WNW 4.6 mph - N/A   Overcast
2:02 AM 61.0 °F 54.0 °F 78% 30.03 in 10.0 mi Variable 6.9 mph - N/A   Overcast
2:16 AM 60.1 °F 54.0 °F 80% 30.03 in 10.0 mi WNW 8.1 mph - N/A   Scattered Clouds
2:53 AM 60.1 °F 53.1 °F 78% 30.01 in 10.0 mi West 4.6 mph - N/A   Mostly Cloudy
3:53 AM 59.0 °F 53.1 °F 81% 30.00 in 10.0 mi Variable 3.5 mph - N/A   Partly Cloudy
4:37 AM 59.0 °F 53.1 °F 81% 30.02 in 10.0 mi Variable 5.8 mph - N/A   Mostly Cloudy
4:53 AM 59.0 °F 53.1 °F 81% 30.01 in 10.0 mi WNW 4.6 mph - N/A   Overcast
5:36 AM 57.9 °F 53.1 °F 84% 30.02 in 10.0 mi Calm Calm - N/A   Mostly Cloudy
5:53 AM 57.9 °F 53.1 °F 84% 30.01 in 10.0 mi Calm Calm - N/A   Overcast
6:53 AM 59.0 °F 54.0 °F 83% 30.02 in 10.0 mi WNW 3.5 mph - N/A   Overcast
7:11 AM 59.0 °F 54.0 °F 83% 30.04 in 10.0 mi West 5.8 mph - N/A   Overcast
7:53 AM 60.1 °F 55.0 °F 83% 30.04 in 10.0 mi West 4.6 mph - N/A   Overcast
8:53 AM 61.0 °F 55.0 °F 81% 30.04 in 10.0 mi Variable 4.6 mph - N/A   Overcast
9:40 AM 63.0 °F 54.0 °F 72% 30.06 in 10.0 mi Variable 6.9 mph - N/A   Mostly Cloudy
9:51 AM 62.6 °F 53.6 °F 72% 30.06 in 10.0 mi WNW 6.9 mph - N/A   Mostly Cloudy
9:53 AM 63.0 °F 55.0 °F 75% 30.05 in 10.0 mi WNW 6.9 mph - N/A   Overcast
10:53 AM 64.0 °F 54.0 °F 70% 30.06 in 10.0 mi WNW 10.4 mph - N/A   Overcast
11:53 AM 66.0 °F 50.0 °F 56% 30.06 in 10.0 mi NW 12.7 mph - N/A   Overcast
12:53 PM 66.0 °F 48.9 °F 54% 30.06 in 10.0 mi NW 4.6 mph - N/A   Mostly Cloudy
1:53 PM 66.9 °F 46.9 °F 49% 30.05 in 10.0 mi WNW 12.7 mph 20.7 mph N/A   Mostly Cloudy
2:53 PM 66.9 °F 46.0 °F 47% 30.05 in 10.0 mi WNW 11.5 mph 18.4 mph N/A   Mostly Cloudy
3:53 PM 66.0 °F 48.9 °F 54% 30.06 in 10.0 mi North 9.2 mph 19.6 mph N/A   Mostly Cloudy
4:53 PM 66.0 °F 48.0 °F 52% 30.07 in 10.0 mi NNW 12.7 mph - N/A   Mostly Cloudy
5:53 PM 66.0 °F 48.0 °F 52% 30.08 in 10.0 mi NNW 6.9 mph - N/A   Partly Cloudy
6:53 PM 64.0 °F 48.9 °F 58% 30.08 in 10.0 mi NW 4.6 mph - N/A   Clear
7:53 PM 61.0 °F 50.0 °F 67% 30.09 in 10.0 mi Calm Calm - N/A   Clear
8:53 PM 57.9 °F 51.1 °F 78% 30.12 in 10.0 mi SW 3.5 mph - 0.00 in   Clear
9:53 PM 57.9 °F 51.1 °F 78% 30.13 in 10.0 mi SSW 3.5 mph - N/A   Clear
10:53 PM 57.0 °F 51.1 °F 81% 30.13 in 10.0 mi SW 4.6 mph - N/A   Clear
11:53 PM 55.9 °F 52.0 °F 87% 30.14 in 10.0 mi SW 5.8 mph - N/A   Clear